User: anonymous   Login
Location: Colebrook
(42.0017°N, 73.0973°W)
Time: 10:24:43
(UTC-04:00)
Language:

Explorer 11/Cluster Stage 4 - Orbit

View from above orbital plane
View from above orbital plane
View from above satellite
View from above satellite

Ground track
Ground track

The orbit data is extracted from the following two-line orbital elements,

1 00107U 61013A   21297.89886233  .00001185  00000-0  13862-3 0  9995
2 00107  28.7905 268.2363 0544957 302.9674  51.9636 14.09345463 36037
Epoch (UTC): 24 October 2021 21:34:21
Eccentricity: 0.0544957
inclination: 28.7905°
perigee height: 467 km
apogee height: 1256 km
right ascension of ascending node: 268.2363°
argument of perigee: 302.9674°
revolutions per day: 14.09345463
mean anomaly at epoch: 51.9636°
orbit number at epoch: 3603

The dashed part of the orbit path shows where the satellite is in the earth's shadow,  

DLR